Precipitable_Water
0.38 0.49 0.57 0.52 0.26 0.23 0.17 0.19 0.25 0.20 0.21 0.26 0.29 0.27 0.26 0.27 0.23 0.18 0.49 0.62 0.68 0.78 0.89 1.05 1.12 1.13 1.17 1.24 1.27 1.31 1.39 1.43 1.43 1.43 1.39 1.37 1.33 1.29 1.27 1.29 1.46 1.47 1.34 1.31 1.22 1.18 1.13 1.12 1.03
0.44 0.49 0.51 0.37 0.19 0.13 0.14 0.21 0.20 0.22 0.26 0.27 0.27 0.26 0.24 0.20 0.32 0.36 0.40 0.58 0.67 0.78 0.89 0.99 1.06 1.10 1.15 1.19 1.21 1.24 1.26 1.26 1.27 1.26 1.23 1.22 1.22 1.19 1.15 1.19 1.21 1.23 1.33 1.29 1.28 1.13 1.07 1.01 0.97
0.46 0.49 0.32 0.23 0.17 0.12 0.13 0.19 0.21 0.25 0.29 0.26 0.22 0.28 0.25 0.23 0.33 0.33 0.46 0.54 0.65 0.73 0.89 0.92 1.03 1.10 1.12 1.14 1.15 1.16 1.14 1.14 1.15 1.14 1.11 1.14 1.15 1.14 1.07 1.03 1.10 1.23 1.23 1.19 1.16 1.11 0.97 0.94 0.88
0.39 0.38 0.31 0.16 0.13 0.16 0.16 0.18 0.23 0.25 0.29 0.29 0.27 0.23 0.28 0.35 0.35 0.41 0.50 0.55 0.59 0.69 0.85 0.91 0.97 1.08 1.13 1.17 1.16 1.11 1.09 1.10 1.09 1.04 1.05 1.10 1.10 1.05 1.00 1.05 1.07 1.12 1.11 1.09 1.05 1.04 0.92 0.83 0.73
0.36 0.28 0.18 0.16 0.16 0.19 0.23 0.23 0.25 0.24 0.25 0.26 0.27 0.23 0.24 0.33 0.49 0.46 0.49 0.55 0.54 0.64 0.80 0.88 0.93 1.00 1.07 1.11 1.13 1.10 1.08 1.07 1.06 1.01 1.04 1.06 1.02 0.98 0.97 1.00 1.03 1.05 1.00 0.95 0.97 0.95 0.84 0.74 0.60
0.22 0.23 0.14 0.12 0.16 0.20 0.25 0.26 0.26 0.23 0.24 0.23 0.22 0.22 0.24 0.37 0.42 0.46 0.54 0.54 0.62 0.64 0.77 0.86 0.90 0.95 1.00 1.05 1.09 1.11 1.12 1.11 1.09 1.07 1.07 1.03 1.02 1.03 0.97 0.87 0.90 0.93 0.93 0.87 0.86 0.83 0.76 0.65 0.48
0.19 0.15 0.13 0.15 0.17 0.19 0.24 0.28 0.24 0.23 0.23 0.23 0.25 0.19 0.25 0.33 0.39 0.45 0.55 0.59 0.60 0.68 0.72 0.79 0.87 0.94 0.99 1.03 1.06 1.09 1.11 1.13 1.12 1.09 1.12 1.10 1.10 1.10 1.03 0.99 0.88 0.80 0.84 0.83 0.80 0.74 0.67 0.53 0.38
0.24 0.18 0.14 0.17 0.17 0.19 0.27 0.28 0.30 0.27 0.25 0.32 0.31 0.22 0.23 0.31 0.39 0.44 0.50 0.55 0.58 0.60 0.68 0.72 0.80 0.89 0.96 1.00 1.04 1.08 1.10 1.12 1.12 1.10 1.11 1.10 1.12 1.14 1.07 1.04 0.99 0.86 0.78 0.75 0.76 0.69 0.60 0.46 0.34
0.28 0.14 0.12 0.17 0.19 0.23 0.30 0.28 0.33 0.35 0.30 0.31 0.32 0.30 0.32 0.37 0.42 0.43 0.43 0.48 0.52 0.60 0.67 0.77 0.78 0.83 0.88 0.92 0.97 1.04 1.08 1.11 1.12 1.10 1.12 1.11 1.11 1.11 1.09 1.05 1.07 0.98 0.84 0.75 0.74 0.66 0.57 0.45 0.34
0.19 0.14 0.14 0.24 0.26 0.26 0.29 0.29 0.30 0.30 0.30 0.30 0.32 0.36 0.38 0.38 0.40 0.40 0.40 0.38 0.40 0.45 0.56 0.70 0.82 0.87 0.90 0.93 0.97 1.03 1.07 1.10 1.09 1.09 1.10 1.11 1.10 1.09 1.06 1.05 1.06 1.06 0.98 0.91 0.77 0.66 0.57 0.45 0.31
0.24 0.15 0.22 0.25 0.30 0.32 0.30 0.30 0.36 0.32 0.29 0.33 0.33 0.34 0.38 0.38 0.39 0.39 0.39 0.39 0.38 0.39 0.43 0.50 0.68 0.83 0.89 0.91 0.94 0.97 1.01 1.06 1.07 1.08 1.09 1.15 1.08 1.10 1.07 1.06 1.03 1.04 1.04 0.99 0.85 0.65 0.53 0.42 0.28
0.21 0.28 0.30 0.31 0.34 0.34 0.31 0.35 0.34 0.35 0.35 0.41 0.39 0.40 0.40 0.39 0.39 0.40 0.41 0.42 0.42 0.43 0.44 0.47 0.50 0.66 0.79 0.88 0.90 0.92 0.94 1.00 1.02 1.08 1.14 1.07 1.06 1.05 1.04 1.04 1.06 1.03 1.01 0.97 0.91 0.73 0.55 0.43 0.31
0.29 0.31 0.35 0.37 0.38 0.36 0.36 0.34 0.35 0.36 0.41 0.43 0.43 0.44 0.44 0.43 0.42 0.44 0.45 0.45 0.46 0.45 0.48 0.50 0.52 0.55 0.73 0.82 0.88 0.92 0.93 0.98 1.05 1.08 1.11 1.13 1.07 0.97 1.05 1.04 1.02 1.04 1.01 0.95 0.91 0.84 0.63 0.47 0.33
0.35 0.35 0.34 0.34 0.34 0.34 0.32 0.34 0.37 0.38 0.43 0.43 0.44 0.44 0.45 0.44 0.44 0.45 0.46 0.45 0.46 0.47 0.48 0.52 0.54 0.56 0.64 0.78 0.88 0.96 1.01 1.03 1.06 1.11 1.12 1.13 1.10 1.06 0.98 1.04 1.05 1.03 1.02 0.97 0.92 0.85 0.75 0.55 0.38
0.38 0.32 0.34 0.34 0.34 0.34 0.38 0.34 0.35 0.40 0.42 0.41 0.43 0.45 0.47 0.48 0.48 0.47 0.48 0.47 0.49 0.50 0.53 0.54 0.57 0.64 0.60 0.75 0.87 0.96 1.09 1.13 1.10 1.12 1.18 1.20 1.21 1.18 1.12 1.07 1.03 1.04 1.06 1.03 0.99 0.88 0.81 0.68 0.48
0.36 0.36 0.29 0.35 0.37 0.39 0.37 0.29 0.37 0.41 0.40 0.39 0.41 0.44 0.45 0.47 0.48 0.49 0.49 0.50 0.52 0.53 0.55 0.60 0.63 0.66 0.71 0.78 0.86 0.96 1.07 1.16 1.19 1.19 1.19 1.24 1.27 1.27 1.22 1.16 1.12 1.09 1.06 1.05 1.00 0.91 0.82 0.75 0.61
0.34 0.27 0.29 0.30 0.39 0.37 0.34 0.30 0.37 0.41 0.40 0.40 0.43 0.45 0.45 0.45 0.47 0.48 0.49 0.50 0.51 0.52 0.54 0.59 0.66 0.69 0.76 0.83 0.89 0.97 1.05 1.10 1.12 1.18 1.18 1.17 1.18 1.19 1.18 1.16 1.20 1.19 1.09 1.03 1.00 0.98 0.90 0.79 0.73
0.28 0.28 0.29 0.30 0.35 0.36 0.33 0.33 0.39 0.44 0.44 0.42 0.44 0.45 0.44 0.43 0.44 0.47 0.48 0.50 0.51 0.51 0.53 0.56 0.61 0.69 0.76 0.81 0.85 0.91 0.96 0.97 1.00 1.04 1.06 1.11 1.13 1.13 1.14 1.15 1.16 1.15 1.13 1.11 1.07 1.02 0.95 0.88 0.79
0.35 0.32 0.31 0.36 0.40 0.37 0.36 0.36 0.40 0.44 0.43 0.41 0.42 0.42 0.42 0.42 0.45 0.46 0.47 0.48 0.48 0.49 0.50 0.51 0.54 0.58 0.63 0.70 0.72 0.75 0.77 0.81 0.82 0.84 0.89 0.93 0.98 1.04 1.04 1.01 1.01 1.03 1.03 1.04 1.02 0.95 0.90 0.83 0.81
0.36 0.33 0.33 0.37 0.41 0.38 0.36 0.36 0.41 0.41 0.40 0.41 0.42 0.42 0.42 0.43 0.44 0.45 0.46 0.47 0.47 0.46 0.47 0.48 0.49 0.52 0.57 0.60 0.63 0.66 0.68 0.70 0.72 0.72 0.74 0.76 0.80 0.84 0.87 0.88 0.88 0.88 0.87 0.86 0.86 0.86 0.82 0.80 0.80
0.37 0.35 0.35 0.35 0.40 0.41 0.37 0.32 0.35 0.39 0.42 0.44 0.45 0.45 0.43 0.41 0.40 0.41 0.43 0.45 0.47 0.47 0.48 0.49 0.50 0.50 0.53 0.56 0.59 0.61 0.63 0.64 0.65 0.65 0.66 0.67 0.69 0.70 0.72 0.74 0.77 0.78 0.78 0.76 0.76 0.76 0.72 0.67 0.72
0.34 0.42 0.40 0.38 0.35 0.27 0.36 0.21 0.29 0.35 0.37 0.41 0.44 0.43 0.42 0.41 0.41 0.40 0.40 0.42 0.45 0.46 0.48 0.49 0.50 0.50 0.50 0.52 0.51 0.50 0.49 0.48 0.50 0.51 0.52 0.52 0.53 0.55 0.59 0.62 0.64 0.65 0.67 0.69 0.73 0.73 0.70 0.67 0.62
0.39 0.45 0.40 0.36 0.32 0.30 0.29 0.25 0.26 0.34 0.33 0.37 0.40 0.41 0.42 0.43 0.42 0.40 0.41 0.42 0.44 0.45 0.44 0.44 0.44 0.44 0.44 0.44 0.45 0.44 0.43 0.44 0.44 0.43 0.42 0.42 0.42 0.43 0.44 0.47 0.49 0.50 0.52 0.55 0.59 0.63 0.67 0.69 0.65
0.44 0.39 0.38 0.37 0.33 0.22 0.27 0.26 0.24 0.29 0.32 0.35 0.40 0.42 0.44 0.44 0.43 0.41 0.42 0.41 0.41 0.42 0.41 0.41 0.41 0.42 0.41 0.41 0.40 0.40 0.38 0.38 0.39 0.38 0.38 0.37 0.36 0.35 0.35 0.35 0.36 0.37 0.39 0.43 0.46 0.49 0.52 0.56 0.60
0.40 0.36 0.28 0.25 0.25 0.22 0.31 0.26 0.26 0.33 0.36 0.39 0.40 0.43 0.45 0.45 0.44 0.41 0.39 0.40 0.40 0.40 0.41 0.42 0.42 0.42 0.43 0.43 0.41 0.39 0.37 0.35 0.34 0.33 0.32 0.30 0.29 0.29 0.29 0.28 0.27 0.28 0.29 0.30 0.32 0.34 0.39 0.45 0.47
0.37 0.36 0.29 0.21 0.22 0.24 0.32 0.23 0.27 0.38 0.42 0.44 0.46 0.45 0.44 0.41 0.40 0.40 0.41 0.42 0.41 0.41 0.43 0.44 0.44 0.43 0.42 0.40 0.38 0.37 0.34 0.29 0.29 0.28 0.26 0.24 0.22 0.23 0.22 0.22 0.22 0.22 0.21 0.21 0.22 0.23 0.25 0.28 0.29
0.38 0.33 0.41 0.34 0.35 0.28 0.29 0.32 0.36 0.41 0.40 0.42 0.41 0.41 0.38 0.39 0.40 0.41 0.44 0.45 0.44 0.44 0.44 0.45 0.42 0.39 0.36 0.35 0.33 0.31 0.29 0.27 0.26 0.25 0.24 0.23 0.22 0.21 0.19 0.18 0.17 0.19 0.19 0.17 0.17 0.16 0.16 0.17 0.20
0.43 0.45 0.33 0.35 0.24 0.21 0.24 0.24 0.24 0.29 0.32 0.34 0.35 0.37 0.39 0.41 0.43 0.46 0.48 0.48 0.47 0.45 0.43 0.40 0.36 0.33 0.31 0.28 0.27 0.25 0.25 0.25 0.25 0.24 0.22 0.21 0.20 0.18 0.16 0.15 0.15 0.15 0.15 0.16 0.15 0.15 0.15 0.14 0.14
0.36 0.34 0.35 0.34 0.30 0.22 0.18 0.18 0.29 0.28 0.31 0.32 0.35 0.38 0.39 0.41 0.42 0.43 0.42 0.40 0.37 0.33 0.29 0.26 0.24 0.22 0.21 0.20 0.19 0.18 0.17 0.17 0.18 0.17 0.18 0.19 0.18 0.16 0.15 0.14 0.14 0.14 0.13 0.13 0.13 0.13 0.13 0.13 0.12
0.39 0.34 0.34 0.26 0.23 0.27 0.26 0.20 0.36 0.35 0.36 0.37 0.37 0.40 0.42 0.43 0.43 0.41 0.39 0.33 0.28 0.25 0.26 0.26 0.25 0.23 0.22 0.21 0.19 0.18 0.18 0.17 0.17 0.16 0.16 0.16 0.15 0.15 0.14 0.14 0.13 0.12 0.12 0.13 0.13 0.13 0.13 0.12 0.12
Wind_Speed
3 3 3 4 5 5 4 4 5 6 5 5 5 5 4 4 5 3 6 3 4 1 5 7 7 7 7 7 7 7 8 8 8 9 8 8 8 8 8 7 7 7 7 7 6 6 7 7 7
3 2 3 3 4 5 5 5 4 5 5 5 5 5 5 4 5 5 5 3 3 1 2 6 8 8 8 7 7 7 7 7 7 8 8 8 8 8 8 8 8 8 7 7 7 6 6 6 6
2 3 3 4 3 3 3 4 5 6 5 5 5 4 4 5 5 4 5 3 3 1 2 5 7 8 9 9 8 8 7 7 7 8 8 8 8 8 8 9 9 9 8 8 8 8 8 7 7
3 3 4 4 4 4 4 4 4 5 5 5 6 5 6 6 5 4 5 4 4 3 3 4 7 8 9 10 10 10 10 9 9 8 8 8 8 8 8 8 8 9 9 10 9 9 9 9 9
4 4 5 4 6 5 4 3 4 5 5 6 7 7 7 7 5 4 5 5 6 5 5 6 7 9 9 10 11 11 11 11 11 11 10 10 10 9 9 9 9 9 9 10 10 10 10 10 10
5 5 5 5 5 5 5 4 5 6 7 7 7 8 7 7 5 6 6 7 7 6 6 7 9 10 11 11 11 12 12 12 12 13 13 13 13 12 11 10 10 11 11 11 11 12 12 11 11
5 6 5 5 6 5 5 6 6 6 8 8 9 10 8 7 8 8 8 8 8 7 7 8 10 11 12 13 13 13 13 13 13 13 14 14 14 14 13 13 12 13 13 13 13 13 12 12 12
6 6 6 6 5 5 6 7 8 9 10 11 9 9 10 10 10 10 10 10 10 9 9 9 10 11 13 14 15 15 15 15 15 15 15 15 16 16 16 15 15 14 14 14 14 14 14 13 13
8 7 6 6 5 7 8 9 10 11 11 13 13 11 12 12 11 12 12 12 12 12 12 12 12 12 14 15 16 17 18 18 18 18 17 17 17 17 17 17 17 16 16 16 15 15 15 15 14
8 7 9 8 7 8 10 10 12 12 14 12 13 14 13 13 12 13 14 15 15 15 15 15 15 15 15 16 17 18 19 19 20 20 20 20 19 19 19 18 18 18 18 17 17 17 17 16 16
9 8 8 10 10 11 11 12 12 13 14 12 13 14 14 13 12 13 13 14 15 16 16 17 18 18 18 18 18 19 20 21 21 21 22 22 21 21 21 20 20 20 19 19 19 19 18 18 18
10 11 11 11 12 13 14 14 15 14 13 13 13 13 13 13 14 15 15 16 16 17 17 18 19 20 21 21 20 20 21 22 22 22 23 22 22 22 23 23 23 22 22 22 21 21 21 21 20
12 13 14 15 16 16 15 16 15 16 15 13 13 14 14 15 16 16 17 17 18 18 19 20 20 21 22 22 22 22 22 22 22 24 25 24 24 24 24 25 25 25 24 25 25 24 24 24 23
13 15 17 18 18 18 16 14 12 13 12 13 14 15 16 16 17 17 18 18 18 19 19 20 20 20 22 23 23 23 23 23 23 23 24 25 26 26 26 27 27 27 27 27 27 28 27 27 26
15 16 17 19 15 14 12 13 14 14 14 14 15 16 17 17 17 18 18 18 19 19 19 19 19 19 19 21 23 23 23 24 24 24 24 25 25 26 27 28 28 29 29 29 28 28 29 29 29
16 15 15 14 13 14 13 16 15 15 15 16 16 17 17 18 18 17 17 18 19 19 18 17 16 16 16 16 18 20 21 22 23 24 25 25 26 27 27 28 29 30 30 31 30 30 30 31 31
16 16 15 17 15 15 15 17 16 16 17 17 17 17 17 17 17 17 17 17 18 16 15 14 14 13 13 13 14 15 15 17 18 20 22 24 26 28 29 29 30 30 31 31 31 32 32 32 33
17 17 17 17 16 16 18 22 22 22 21 19 17 17 16 16 17 17 17 17 16 15 14 13 12 12 12 12 13 13 14 14 15 16 18 20 21 23 25 27 28 30 30 31 32 33 34 34 35
17 18 19 19 20 20 23 24 25 23 19 17 17 16 16 16 17 16 16 16 15 14 13 13 13 13 13 13 13 13 14 15 15 16 17 18 19 21 23 24 25 27 30 31 33 34 35 35 35
20 21 23 23 22 20 23 24 25 20 19 19 16 16 17 17 17 17 16 15 15 14 14 13 12 12 12 12 13 13 14 14 15 15 16 17 18 19 20 22 24 25 27 29 32 35 36 37 37
21 22 21 22 21 22 23 25 22 18 17 16 17 17 18 17 17 17 17 16 15 14 14 13 13 13 12 13 14 14 15 16 17 17 18 19 20 20 21 23 23 24 25 26 28 30 32 34 36
21 21 22 22 19 21 17 21 21 17 17 18 18 18 17 17 17 17 18 17 17 16 15 14 14 14 14 14 14 14 16 17 19 20 20 20 21 22 23 25 26 27 28 28 29 30 31 32 33
21 18 17 18 18 18 20 21 23 17 21 21 19 18 18 18 19 19 19 19 19 18 17 17 16 16 16 16 17 17 18 19 20 20 21 22 23 24 25 27 28 29 30 31 32 33 33 34 35
16 15 16 17 18 20 21 19 23 21 21 19 20 20 20 20 21 21 21 21 20 20 19 19 19 19 20 20 20 21 22 23 24 25 27 27 28 28 29 29 30 30 31 32 34 35 36 37 38
17 15 17 18 18 21 19 20 25 22 22 22 22 21 23 24 24 23 23 23 22 22 22 23 23 23 24 25 26 26 27 28 29 30 31 32 32 34 35 35 35 35 35 35 35 35 36 37 39
19 18 17 19 18 21 21 24 25 25 26 24 22 25 26 26 26 26 25 24 24 24 25 26 27 28 29 30 31 32 32 32 33 34 35 35 37 37 37 38 38 39 39 39 39 39 40 40 40
20 22 21 20 23 25 27 29 29 26 26 25 24 26 26 25 25 25 25 26 26 27 28 29 31 32 32 33 34 35 36 36 37 38 39 40 40 41 41 42 42 43 43 44 44 44 44 45 45
22 21 20 22 23 25 27 30 30 29 27 25 25 25 24 25 26 27 27 28 29 30 32 33 34 34 35 35 36 37 38 39 40 41 42 43 44 45 46 46 47 48 48 49 49 49 50 50 50
22 24 23 23 25 25 27 31 29 29 26 26 27 27 27 28 28 29 31 33 34 35 35 36 36 36 36 37 37 38 40 41 42 43 44 45 47 48 49 50 50 51 51 52 53 54 55 55 55
26 27 26 28 29 29 28 38 30 28 27 26 27 29 30 31 32 34 36 37 37 37 37 37 37 38 38 39 40 40 42 43 43 44 46 47 48 49 51 51 52 53 53 55 56 57 58 59 60
Wind_Direction
33 38 45 37 26 31 11 13 4 10 10 16 27 32 33 32 35 23 11 36 21 92 179 191 189 187 185 185 188 192 200 211 220 226 229 231 236 243 248 249 244 250 257 257 259 259 256 258 261
20 32 29 21 35 21 342 343 357 359 5 12 15 18 17 5 2 0 14 16 15 51 182 198 202 204 202 201 200 203 208 217 223 227 231 235 240 245 247 248 250 252 250 251 257 258 258 258 258
16 19 11 11 11 357 340 337 348 350 356 358 355 346 345 339 342 346 348 348 348 327 223 208 208 212 215 215 215 217 222 226 229 231 235 238 241 247 251 251 249 245 249 255 256 257 260 258 260
349 340 353 6 349 335 340 346 347 355 352 360 352 343 330 329 323 314 333 337 326 298 256 232 222 222 223 225 228 231 233 236 238 240 240 241 240 247 251 250 248 249 254 258 258 259 261 260 261
339 331 339 338 318 317 328 339 351 0 350 339 344 334 322 326 318 320 321 319 315 296 267 249 237 234 233 234 236 238 241 242 243 244 244 244 248 251 252 253 251 253 257 261 260 261 262 262 262
325 320 332 317 310 306 313 320 335 341 334 329 332 328 315 323 312 315 313 313 311 295 275 261 249 244 241 241 242 244 245 246 247 247 247 249 250 250 252 258 254 256 259 262 262 262 262 262 260
320 319 300 303 307 309 307 315 322 322 321 313 316 318 309 315 301 301 302 307 308 300 284 270 259 252 249 247 248 248 249 250 251 251 251 253 253 250 252 254 259 259 261 264 263 262 262 261 258
312 313 304 294 298 299 307 313 312 315 312 312 307 304 300 302 303 299 296 294 297 295 290 282 268 260 255 253 251 251 252 253 254 254 254 255 255 251 253 255 258 260 261 263 261 262 262 260 258
303 309 290 283 288 293 307 314 306 306 307 311 304 301 302 305 298 295 294 291 291 288 285 281 274 266 261 258 256 254 254 255 255 256 256 257 257 254 254 256 258 260 261 262 261 262 261 260 258
300 293 272 274 276 287 299 302 308 310 309 306 307 304 303 304 302 298 296 291 289 286 282 278 273 270 265 262 260 257 257 256 256 257 256 257 257 256 256 257 259 260 260 262 261 261 260 259 258
288 278 274 278 274 287 295 298 300 302 305 298 307 305 310 309 309 307 303 297 292 288 283 280 273 268 266 264 263 261 260 258 258 257 257 257 257 256 256 258 259 261 261 262 261 260 260 259 258
285 280 280 283 280 289 292 296 299 294 291 306 306 308 311 311 308 306 303 299 297 293 288 283 277 269 265 263 263 264 262 261 259 258 258 257 258 257 257 258 260 261 262 262 262 262 261 260 259
277 285 283 283 284 284 290 289 290 290 293 300 304 311 312 309 305 302 303 300 297 295 291 286 280 273 265 263 263 263 264 263 262 260 259 258 258 259 259 259 260 261 262 262 262 262 262 261 261
280 283 284 284 283 284 282 287 290 293 299 303 305 308 309 309 307 303 305 304 304 300 297 291 285 277 267 263 262 263 263 264 263 263 262 259 258 259 262 260 261 262 263 263 263 262 262 262 262
284 289 290 283 283 278 274 286 281 283 299 300 303 305 308 308 306 305 302 302 304 303 301 296 291 285 273 264 262 262 262 263 264 264 263 261 260 260 262 262 263 263 263 263 263 263 262 262 262
286 288 291 283 282 282 276 281 284 290 294 295 297 301 304 306 306 305 305 305 305 305 303 299 296 290 282 272 266 264 263 263 264 265 265 264 264 264 264 265 264 264 263 263 263 263 264 263 262
286 280 276 288 281 282 279 284 282 293 295 290 292 297 300 302 305 305 307 306 307 307 307 305 301 297 289 279 274 270 267 266 267 267 268 267 267 266 266 266 265 265 265 264 263 263 264 264 264
273 276 277 278 285 280 280 282 288 287 288 284 286 291 295 298 301 302 304 307 307 305 305 304 302 299 293 284 279 274 271 272 274 274 274 273 271 270 269 269 268 266 266 264 263 264 265 266 266
275 274 275 282 282 283 280 283 286 288 289 283 283 287 291 294 296 300 303 304 306 307 306 306 305 301 292 285 282 282 278 276 278 280 281 280 278 276 273 272 271 270 266 267 266 266 266 266 266
274 278 279 283 282 279 285 286 288 291 289 284 280 285 287 289 293 295 297 300 302 301 303 305 305 304 297 291 284 279 278 282 282 285 287 287 285 283 281 278 276 275 272 271 270 268 267 266 266
269 270 276 276 286 284 291 290 285 286 285 284 283 282 286 288 289 290 293 294 294 296 297 296 298 299 298 292 284 282 280 283 285 288 287 290 289 288 286 283 281 280 278 276 274 273 271 269 267
269 269 271 275 280 281 283 290 290 282 282 284 281 280 279 282 285 287 287 288 287 286 286 289 292 292 292 291 289 289 288 287 287 286 287 290 291 291 289 287 285 282 280 279 277 276 274 272 271
271 277 272 276 278 286 286 293 291 287 284 279 275 273 273 277 279 282 282 282 282 281 282 282 283 286 287 288 289 288 287 288 287 288 289 290 292 293 292 290 288 285 283 280 278 277 276 274 273
270 272 282 283 283 284 276 275 291 287 288 284 276 273 271 275 277 280 279 277 277 276 278 280 281 283 284 287 289 290 288 287 287 288 288 288 289 291 292 291 290 289 287 285 282 279 276 275 273
264 270 281 284 283 277 287 283 282 287 288 279 271 267 274 279 276 276 274 273 273 273 275 277 279 282 283 284 286 287 288 287 288 287 287 288 289 290 290 290 289 288 286 286 284 282 280 278 275
257 257 263 271 276 281 284 281 288 288 286 282 269 272 276 275 273 271 269 269 270 272 274 276 279 282 283 284 285 285 285 286 286 286 287 287 288 288 289 289 288 287 286 285 284 282 281 279 277
264 263 267 274 281 285 281 286 287 286 287 284 277 273 271 269 268 267 267 269 271 273 275 276 280 282 284 284 285 286 286 286 286 287 285 286 288 287 288 288 287 286 285 284 283 282 281 279 277
266 266 275 277 279 278 282 285 283 282 278 277 273 268 268 268 268 268 268 270 273 275 277 279 280 282 282 283 284 286 286 287 286 286 286 287 287 288 288 287 287 286 285 283 283 281 280 279 277
269 269 272 272 270 273 281 283 283 282 277 271 268 268 268 268 268 270 272 274 275 276 278 280 281 281 282 283 284 285 286 287 287 287 287 287 287 288 288 288 287 286 285 284 282 282 280 279 278
271 267 265 268 273 275 274 277 284 285 275 271 270 270 271 272 273 275 275 276 277 277 277 278 280 281 282 283 284 286 287 288 288 288 288 289 288 288 288 288 288 287 286 285 283 282 280 279 277